Regional Weather Roundup
Issued by NWS

Home | Current Version | Previous Version | Text Only | Print | Product List | Glossary Off
Versions: 1 2 3 4 5 6 7 8 9 10 11 12 13 14 15 16 17 18 19 20 21 22 23 24 25 26 27 28 29 30 31 32 33 34 35 36 37 38 39 40 41 42 43 44 45 46 47 48 49 50

898
ASUS45 KCYS 301510
RWRWY

WYOMING REGIONAL WEATHER ROUNDUP
NATIONAL WEATHER SERVICE CHEYENNE WY
900 AM MDT SAT JUL 30 2016

NOTE:  "FAIR" INDICATES FEW OR NO CLOUDS BELOW 12,000 FEET
WITH NO SIGNIFICANT WEATHER AND/OR OBSTRUCTIONS TO VISIBILITY.

WYZ001-301600-
YELLOWSTONE NATIONAL PARK

CITY           SKY/WX    TMP DP  RH WIND       PRES   REMARKS
LK YELLOWSTONE   N/A     57  48  72 E3        30.22R
W YELLOWSTONE  NOT AVBL

$$
WYZ002>013-054>058-071-098>099-301600-
NORTHERN WYOMING

CITY           SKY/WX    TMP DP  RH WIND       PRES   REMARKS
JACKSON        SUNNY     59  37  44 S5        30.14S
CODY           FAIR      68  54  60 CALM      29.99S
GREYBULL       FAIR      74  47  38 N3        29.92F
WORLAND        FAIR      76  47  35 CALM      29.93F
SHERIDAN       FAIR      72  50  45 N3        29.93R
BUFFALO        FAIR      75  47  36 SE3       29.99F
GILLETTE       FAIR      77  55  46 S7        29.96F
HULETT         FAIR      73  57  56 SW3       29.99S
NEWCASTLE      FAIR      72  54  53 S5        30.00S

$$
WYZ014>020-022>026-101>103-301600-
CENTRAL WYOMING

CITY           SKY/WX    TMP DP  RH WIND       PRES   REMARKS
BIG PINEY      FAIR      64  37  36 E5        30.21S
PINEDALE       FAIR      63  36  36 CALM      30.22S
DUBOIS           N/A     61  41  48 NW5       30.17S HAZE
LANDER         FAIR      70  47  43 N6        30.07F
RIVERTON       FAIR      71  47  42 NW5       30.06F
CASPER         FAIR      67  56  67 S5        30.05F
DOUGLAS        FAIR      68  57  68 CALM      30.05S

$$
WYZ021-027>030-104>119-301600-
SOUTHERN WYOMING

CITY           SKY/WX    TMP DP  RH WIND       PRES   REMARKS
EVANSTON       FAIR      69  34  27 SW5       30.20S
KEMMERER         N/A     64  34  32 N6        30.21S
FORT BRIDGER   FAIR      69  35  28 NW6       30.22S
ROCK SPRINGS   FAIR      67  44  43 SE3       30.18S
DIXON          FAIR      64  34  33 SE6       30.22R
RAWLINS        FAIR      64  52  64 E3        30.19R
SARATOGA       FAIR      64  45  48 CALM      30.21S
LARAMIE        FAIR      61  53  75 MISG      30.20S
CHEYENNE       CLOUDY    63  59  87 S6        30.13S
TORRINGTON     FAIR      70  61  73 SE5       30.01S
PINE BLUFFS    FAIR      70  61  73 S8        30.08F

$$




USA.gov is the U.S. government's official web portal to all federal, state and local government web resources and services.